CW0641 Weather Reports


time (UTC)temp
C
wind
direction
speed
KPH
gust
KPH
rain 1hr
cm
rain 24hr
cm
rain mn
cm
humidity
%
barometer
mb
20260906131539 26 311 9.7 22.5 0.00 0.00 0.00 51 1013.4
20260906131039 27 348 9.7 22.5 0.00 0.00 0.00 52 1013.6
20260906130540 27 304 8.0 20.9 0.00 0.00 0.00 51 1013.5
20260906130352 27 355 8.0 24.1 0.00 0.00 0.00 51 1013.4
20260906125541 27 293 8.0 24.1 0.00 0.00 0.00 51 1013.4
20260906125352 27 330 8.0 22.5 0.00 0.00 0.00 52 1013.5
20260906124539 27 277 8.0 22.5 0.00 0.00 0.00 50 1013.6
20260906124348 27 324 8.0 22.5 0.00 0.00 0.00 55 1013.5
20260906123539 27 286 8.0 22.5 0.00 0.00 0.00 56 1013.4
20260906123349 27 281 8.0 22.5 0.00 0.00 0.00 52 1013.4
20260906122542 27 289 8.0 19.3 0.00 0.00 0.00 52 1013.5
20260906121539 27 335 9.7 19.3 0.00 0.00 0.00 53 1013.3
20260906121345 27 284 9.7 22.5 0.00 0.00 0.00 53 1013.4
20260906120342 27 279 9.7 24.1 0.00 0.00 0.00 53 1013.4
20260906115539 27 315 9.7 24.1 0.00 0.00 0.00 51 1013.5
20260906115349 28 286 8.0 20.9 0.00 0.00 0.00 49 1013.6
20260906114536 28 355 6.4 19.3 0.00 0.00 0.00 48 1013.6
20260906114341 28 332 6.4 17.7 0.00 0.00 0.00 45 1013.5
20260906113535 28 327 6.4 16.1 0.00 0.00 0.00 44 1013.5
20260906113339 28 279 6.4 20.9 0.00 0.00 0.00 44 1013.4
20260906112534 28 319 4.8 20.9 0.00 0.00 0.00 45 1013.3
20260906112336 28 305 6.4 19.3 0.00 0.00 0.00 45 1013.5
20260906111535 28 333 6.4 19.3 0.00 0.00 0.00 46 1013.5
20260906111338 28 275 6.4 19.3 0.00 0.00 0.00 46 1013.5
20260906110535 28 292 6.4 19.3 0.00 0.00 0.00 44 1013.6
20260906110334 28 17 4.8 16.1 0.00 0.00 0.00 45 1013.4
20260906105532 28 349 6.4 14.5 0.00 0.00 0.00 43 1013.5
20260906105335 28 30 6.4 16.1 0.00 0.00 0.00 43 1013.7
20260906104532 28 279 6.4 19.3 0.00 0.00 0.00 43 1013.6
20260906104334 28 350 8.0 19.3 0.00 0.00 0.00 43 1013.6
20260906103329 28 323 6.4 19.3 0.00 0.00 0.00 41 1013.7
20260906102527 28 336 8.0 19.3 0.00 0.00 0.00 41 1013.7
20260906101526 28 329 8.0 19.3 0.00 0.00 0.00 43 1013.7
20260906101330 28 339 8.0 19.3 0.00 0.00 0.00 44 1013.9
20260906100525 28 326 6.4 16.1 0.00 0.00 0.00 44 1013.7
20260906100326 28 317 6.4 16.1 0.00 0.00 0.00 42 1013.8
20260906095323 28 290 6.4 16.1 0.00 0.00 0.00 41 1013.9
20260906094515 28 326 4.8 16.1 0.00 0.00 0.00 42 1013.8
20260906094325 28 298 4.8 14.5 0.00 0.00 0.00 45 1013.9
20260906093513 28 309 3.2 14.5 0.00 0.00 0.00 44 1013.9
20260906092513 27 309 6.4 14.5 0.00 0.00 0.00 45 1014.0
20260906091506 27 331 3.2 14.5 0.00 0.00 0.00 45 1013.9
20260906091316 27 278 4.8 19.3 0.00 0.00 0.00 48 1014.0
20260906090508 27 307 4.8 19.3 0.00 0.00 0.00 47 1014.2
20260906090313 27 326 4.8 12.9 0.00 0.00 0.00 48 1014.2
20260906085500 27 339 6.4 17.7 0.00 0.00 0.00 48 1014.3
20260906085312 27 295 6.4 17.7 0.00 0.00 0.00 48 1014.5
20260906084501 27 272 6.4 20.9 0.00 0.00 0.00 53 1014.4
20260906084307 26 280 6.4 20.9 0.00 0.00 0.00 53 1014.4
20260906083455 26 306 8.0 24.1 0.00 0.00 0.00 52 1014.5
20260906082453 26 298 4.8 12.9 0.00 0.00 0.00 55 1014.6
20260906082309 26 355 4.8 14.5 0.00 0.00 0.00 53 1014.6
20260906080948 26 350 6.4 17.7 0.00 0.00 0.00 57 1014.7
20260906080449 26 342 6.4 16.1 0.00 0.00 0.00 58 1014.7
20260906075945 26 283 6.4 16.1 0.00 0.00 0.00 58 1014.7
20260906075445 26 327 4.8 16.1 0.00 0.00 0.00 58 1014.7
20260906074940 26 326 4.8 14.5 0.00 0.00 0.00 58 1014.7
20260906074441 25 263 4.8 14.5 0.00 0.00 0.00 57 1014.7
20260906073935 25 322 6.4 20.9 0.00 0.00 0.00 57 1014.7
20260906073436 25 329 6.4 20.9 0.00 0.00 0.00 60 1014.7
20260906072932 25 310 4.8 16.1 0.00 0.00 0.00 65 1014.7
20260906072437 25 315 6.4 16.1 0.00 0.00 0.00 66 1014.7
20260906071933 24 340 6.4 16.1 0.00 0.00 0.00 67 1014.8
20260906071429 24 279 4.8 12.9 0.00 0.00 0.00 71 1014.8
20260906070427 23 256 3.2 11.3 0.00 0.00 0.00 76 1014.7
20260906065926 23 252 3.2 11.3 0.00 0.00 0.00 78 1014.8
20260906065424 23 329 3.2 11.3 0.00 0.00 0.00 79 1014.7
20260906064925 23 307 3.2 11.3 0.00 0.00 0.00 80 1014.7
20260906064425 23 283 3.2 11.3 0.00 0.00 0.00 82 1014.7
20260906063926 22 300 3.2 14.5 0.00 0.00 0.00 82 1014.7
20260906063422 22 288 3.2 14.5 0.00 0.00 0.00 84 1014.6
20260906062920 22 279 3.2 12.9 0.00 0.00 0.00 85 1014.6
20260906062420 21 287 3.2 12.9 0.00 0.00 0.00 87 1014.5
20260906061922 21 286 4.8 14.5 0.00 0.00 0.00 88 1014.6
20260906061420 21 350 3.2 14.5 0.00 0.00 0.00 89 1014.6
20260906060418 21 323 3.2 14.5 0.00 0.00 0.00 91 1014.7
20260906055416 20 292 3.2 12.9 0.00 0.00 0.00 93 1014.7
20260906054416 20 275 3.2 11.3 0.00 0.00 0.00 93 1014.5
20260906052914 20 278 3.2 11.3 0.00 0.00 0.00 94 1014.4
20260906052412 20 313 4.8 14.5 0.00 0.00 0.00 94 1014.3
20260906051914 20 277 4.8 14.5 0.00 0.00 0.00 94 1014.4
20260906051415 20 311 3.2 12.9 0.00 0.00 0.00 95 1014.4
20260906050913 20 296 3.2 12.9 0.00 0.00 0.00 94 1014.4
20260906050416 20 315 3.2 14.5 0.00 0.00 0.00 95 1014.4
20260906045412 20 269 3.2 12.9 0.00 0.00 0.00 95 1014.3
20260906044910 20 287 4.8 12.9 0.00 0.00 0.00 95 1014.2
20260906043911 20 314 3.2 11.3 0.00 0.00 0.00 95 1014.2
20260906042909 20 292 3.2 9.7 0.00 0.00 0.00 95 1014.2
20260906042406 20 269 3.2 8.0 0.00 0.00 0.00 95 1013.9
20260906041905 20 297 1.6 8.0 0.00 0.00 0.00 95 1014.0
20260906041404 20 274 3.2 8.0 0.00 0.00 0.00 95 1014.0
20260906040859 20 306 3.2 12.9 0.00 0.00 0.00 95 1014.0
20260906035901 20 290 3.2 11.3 0.00 0.00 0.00 95 1013.9
20260906035405 20 292 3.2 11.3 0.00 0.00 0.00 95 1013.9
20260906034858 20 263 3.2 9.7 0.00 0.00 0.00 95 1013.8
20260906034349 20 265 3.2 9.7 0.00 0.00 0.00 94 1013.8
20260906033848 20 281 1.6 9.7 0.00 0.00 0.00 94 1013.8
20260906033346 20 276 4.8 12.9 0.00 0.00 0.00 94 1013.8
20260906032346 20 300 4.8 14.5 0.00 0.00 0.00 94 1013.7
20260906031840 20 330 4.8 14.5 0.00 0.00 0.00 94 1013.7
20260906031339 20 285 3.2 11.3 0.00 0.00 0.00 94 1013.7
20260906030337 20 294 3.2 14.5 0.00 0.00 0.00 94 1013.7
20260906025837 20 294 3.2 12.9 0.00 0.00 0.00 95 1013.6
20260906025339 20 284 3.2 9.7 0.00 0.00 0.00 95 1013.6
20260906024835 20 308 1.6 9.7 0.00 0.00 0.00 95 1013.6
20260906024335 20 283 1.6 8.0 0.00 0.00 0.00 94 1013.6
20260906023838 20 338 3.2 8.0 0.00 0.00 0.00 94 1013.5
20260906023330 20 295 4.8 12.9 0.00 0.00 0.00 94 1013.4
20260906022828 20 316 4.8 14.5 0.00 0.00 0.00 94 1013.4
20260906021325 20 355 3.2 12.9 0.00 0.00 0.00 94 1013.5
20260906020820 20 296 3.2 9.7 0.00 0.00 0.00 94 1013.5
20260906020318 20 0 4.8 14.5 0.00 0.00 0.00 94 1013.4
20260906015816 20 294 6.4 14.5 0.00 0.00 0.00 94 1013.4
20260906015317 19 301 6.4 14.5 0.00 0.00 0.00 94 1013.3
20260906014321 19 296 4.8 16.1 0.00 0.00 0.00 94 1013.4
20260906013819 19 329 4.8 12.9 0.00 0.00 0.00 94 1013.2
20260906013318 19 294 3.2 9.7 0.00 0.00 0.00 94 1013.1
20260906012817 19 315 3.2 11.3 0.00 0.00 0.00 94 1013.1
20260906012318 19 304 3.2 11.3 0.00 0.00 0.00 94 1013.0
20260906011813 19 313 3.2 6.4 0.00 0.00 0.00 94 1013.1
20260906011314 19 315 3.2 9.7 0.00 0.00 0.00 94 1013.0
20260906010812 20 295 3.2 9.7 0.00 0.00 0.00 94 1013.1
20260906005306 20 305 3.2 8.0 0.00 0.00 0.00 94 1013.0
20260906004803 20 310 3.2 8.0 0.00 0.00 0.00 94 1013.1
20260906004303 20 312 3.2 8.0 0.00 0.00 0.00 93 1013.1
20260906003807 20 284 3.2 11.3 0.00 0.00 0.00 93 1013.1
20260906003302 20 291 3.2 11.3 0.00 0.00 0.00 93 1013.2
20260906002759 20 253 3.2 9.7 0.00 0.00 0.00 93 1013.2
20260906002301 20 284 1.6 9.7 0.00 0.00 0.00 93 1013.2
20260906001757 20 293 1.6 8.0 0.00 0.00 0.00 93 1013.2
20260906001257 20 312 3.2 14.5 0.00 0.00 0.00 93 1013.1
20260906000758 20 351 3.2 14.5 0.00 0.00 0.00 93 1013.0
20260906000258 20 340 3.2 9.7 0.00 0.00 0.00 93 1013.1
20260905235752 20 324 3.2 9.7 0.00 0.00 0.00 93 1013.2
20260905235247 20 325 3.2 14.5 0.00 0.00 0.00 93 1013.2
20260905234247 20 284 4.8 12.9 0.00 0.00 0.00 93 1013.2
20260905233747 20 319 3.2 4.8 0.00 0.00 0.00 93 1013.2
20260905233239 20 319 3.2 12.9 0.00 0.00 0.00 93 1013.2
20260905232732 20 319 3.2 12.9 0.00 0.00 0.00 93 1013.2
20260905232227 20 0 1.6 8.0 0.00 0.00 0.00 93 1013.2
20260905231730 20 325 1.6 6.4 0.00 0.00 0.00 93 1013.2
20260905231228 20 338 1.6 11.3 0.00 0.00 0.00 93 1013.2
20260905230729 20 302 3.2 11.3 0.00 0.00 0.00 93 1013.2
20260905225726 20 350 3.2 12.9 0.00 0.00 0.00 93 1013.2
20260905225225 20 0 4.8 12.9 0.00 0.00 0.00 93 1013.2
20260905224726 20 327 4.8 12.9 0.00 0.00 0.00 93 1013.2
20260905223727 20 355 4.8 12.9 0.00 0.00 0.00 93 1013.3
20260905223217 20 333 4.8 9.7 0.00 0.00 0.00 92 1013.3
20260905222717 20 350 4.8 9.7 0.00 0.00 0.00 92 1013.4
20260905222209 20 315 3.2 8.0 0.00 0.00 0.00 92 1013.4
20260905221710 20 325 3.2 8.0 0.00 0.00 0.00 92 1013.4
20260905220209 20 340 3.2 8.0 0.00 0.00 0.00 92 1013.7
20260905215707 20 342 3.2 9.7 0.00 0.00 0.00 92 1013.7
20260905215207 20 335 3.2 9.7 0.00 0.00 0.00 92 1013.7
20260905214706 20 313 4.8 11.3 0.00 0.00 0.00 92 1013.7
20260905214158 20 302 4.8 12.9 0.00 0.00 0.00 92 1013.8
20260905213658 20 325 4.8 12.9 0.00 0.00 0.00 92 1013.8
20260905213200 20 296 4.8 12.9 0.00 0.00 0.00 92 1013.9
20260905212658 21 338 3.2 9.7 0.00 0.00 0.00 92 1013.9
20260905212158 21 320 3.2 9.7 0.00 0.00 0.00 92 1013.9
20260905211701 21 292 4.8 9.7 0.00 0.00 0.00 92 1013.9
20260905211159 21 321 3.2 8.0 0.00 0.00 0.00 91 1013.9
20260905210657 21 321 3.2 9.7 0.00 0.00 0.00 91 1014.0
20260905210157 21 330 3.2 9.7 0.00 0.00 0.00 91 1014.0
20260905205157 21 13 3.2 11.3 0.00 0.00 0.00 91 1014.2
20260905204700 21 308 3.2 11.3 0.00 0.00 0.00 91 1014.2
20260905204159 21 306 3.2 8.0 0.00 0.00 0.00 91 1014.2
20260905203658 21 312 3.2 8.0 0.00 0.00 0.00 91 1014.3
20260905203201 21 310 3.2 6.4 0.00 0.00 0.00 91 1014.3
20260905202157 21 260 1.6 6.4 0.00 0.00 0.00 91 1014.4
20260905201656 21 273 3.2 11.3 0.00 0.00 0.00 91 1014.3
20260905201154 21 284 3.2 11.3 0.00 0.00 0.00 90 1014.4
20260905200656 21 306 4.8 12.9 0.00 0.00 0.00 90 1014.4
20260905200154 21 311 3.2 12.9 0.00 0.00 0.00 90 1014.4
20260905195656 21 306 3.2 11.3 0.00 0.00 0.00 90 1014.3
20260905195154 21 267 3.2 11.3 0.00 0.00 0.00 90 1014.3
20260905194653 21 290 4.8 17.7 0.00 0.00 0.00 90 1014.4
20260905194152 21 325 4.8 17.7 0.00 0.00 0.00 90 1014.4
20260905192648 21 307 3.2 14.5 0.00 0.00 0.00 89 1014.5
20260905192145 21 285 3.2 14.5 0.00 0.00 0.00 89 1014.5
20260905191640 21 296 3.2 12.9 0.00 0.00 0.00 89 1014.6
20260905190139 21 312 4.8 12.9 0.00 0.00 0.00 88 1014.5
20260905185637 22 280 4.8 12.9 0.00 0.00 0.00 88 1014.5
20260905184638 22 333 4.8 14.5 0.00 0.00 0.00 88 1014.6
20260905184133 22 335 3.2 12.9 0.00 0.00 0.00 88 1014.6
20260905183634 22 325 4.8 14.5 0.00 0.00 0.00 88 1014.7
20260905182624 22 285 4.8 12.9 0.00 0.00 0.00 88 1014.7
20260905182123 22 281 4.8 12.9 0.00 0.00 0.00 88 1014.8
20260905181623 22 319 4.8 12.9 0.00 0.00 0.00 87 1014.8
20260905181123 22 335 4.8 12.9 0.00 0.00 0.00 87 1014.7
20260905180621 22 283 4.8 16.1 0.00 0.00 0.00 87 1014.8
20260905175620 22 331 4.8 14.5 0.00 0.00 0.00 87 1014.8
20260905175121 22 336 4.8 12.9 0.00 0.00 0.00 87 1014.7
20260905174621 22 294 4.8 12.9 0.00 0.00 0.00 86 1014.7
20260905174124 22 249 3.2 12.9 0.00 0.00 0.00 86 1014.6
20260905173620 22 324 4.8 14.5 0.00 0.00 0.00 86 1014.7
20260905173122 22 314 6.4 16.1 0.00 0.00 0.00 85 1014.6
20260905172620 22 342 6.4 17.7 0.00 0.00 0.00 85 1014.4
20260905172120 22 292 6.4 17.7 0.00 0.00 0.00 85 1014.4
20260905171619 23 299 6.4 17.7 0.00 0.00 0.00 84 1014.4
20260905171114 23 340 6.4 16.1 0.00 0.00 0.00 84 1014.4
20260905170611 23 284 6.4 16.1 0.00 0.00 0.00 83 1014.3
20260905170110 23 278 4.8 14.5 0.00 0.00 0.00 83 1014.2
20260905165609 23 288 4.8 12.9 0.00 0.00 0.00 83 1014.2
20260905165115 23 286 4.8 12.9 0.00 0.00 0.00 82 1013.9
20260905164111 23 331 4.8 16.1 0.00 0.00 0.00 81 1013.8
20260905163609 23 319 6.4 16.1 0.00 0.00 0.00 80 1013.7
20260905163103 23 309 6.4 16.1 0.00 0.00 0.00 80 1013.7
20260905162601 23 336 6.4 17.7 0.00 0.00 0.00 79 1013.5
20260905162103 23 310 8.0 20.9 0.00 0.00 0.00 78 1013.6
20260905161101 23 300 8.0 19.3 0.00 0.00 0.00 77 1013.5
20260905160557 24 300 8.0 17.7 0.00 0.00 0.00 76 1013.5
20260905160059 24 286 8.0 20.9 0.00 0.00 0.00 75 1013.6
20260905155556 24 325 9.7 20.9 0.00 0.00 0.00 74 1013.4
20260905155057 24 287 8.0 17.7 0.00 0.00 0.00 73 1013.4
20260905154059 25 294 6.4 16.1 0.00 0.00 0.00 71 1013.5
20260905153558 25 290 6.4 14.5 0.00 0.00 0.00 70 1013.4
20260905153056 25 304 6.4 16.1 0.00 0.00 0.00 69 1013.5
20260905152559 25 312 6.4 16.1 0.00 0.00 0.00 68 1013.4
20260905152055 26 323 8.0 24.1 0.00 0.00 0.00 67 1013.4
20260905151556 26 304 6.4 24.1 0.00 0.00 0.00 66 1013.4
20260905151054 26 283 6.4 14.5 0.00 0.00 0.00 65 1013.4
20260905150558 26 298 4.8 16.1 0.00 0.00 0.00 64 1013.3
20260905150050 26 328 6.4 16.1 0.00 0.00 0.00 64 1013.4
20260905145553 26 309 6.4 16.1 0.00 0.00 0.00 63 1013.4
20260905145051 26 333 4.8 14.5 0.00 0.00 0.00 63 1013.4
20260905144552 26 294 4.8 14.5 0.00 0.00 0.00 63 1013.3
20260905144046 26 344 4.8 14.5 0.00 0.00 0.00 63 1013.3
20260905143543 26 290 4.8 12.9 0.00 0.00 0.00 62 1013.3
20260905142542 27 289 4.8 19.3 0.00 0.00 0.00 62 1013.2
20260905142039 27 331 6.4 19.3 0.00 0.00 0.00 61 1013.2
20260905141539 27 269 6.4 16.1 0.00 0.00 0.00 61 1013.1
20260905140537 27 336 6.4 19.3 0.00 0.00 0.00 61 1013.1
20260905140040 27 270 6.4 19.3 0.00 0.00 0.00 60 1013.1
20260905135541 27 285 6.4 14.5 0.00 0.00 0.00 60 1013.1
20260905135039 27 311 6.4 16.1 0.00 0.00 0.00 59 1013.0
20260905133530 27 297 6.4 17.7 0.00 0.00 0.00 59 1013.0
20260905133028 27 283 6.4 17.7 0.00 0.00 0.00 59 1012.9